| time (UTC) | temp C | wind direction | speed KPH | gust KPH | rain 1hr cm | rain 24hr cm | rain mn cm | humidity % | barometer mb |
| 20260903162057 | 27 | 153 | 0.0 | 9.7 | 0.00 | 0.00 | 0.00 | 47 | 1019.2 |
| 20260903161558 | 27 | 134 | 3.2 | 9.7 | 0.00 | 0.00 | 0.00 | 46 | 1019.2 |
| 20260903161059 | 27 | 128 | 0.0 | 9.7 | 0.00 | 0.00 | 0.00 | 47 | 1019.2 |
| 20260903160557 | 27 | 132 | 0.0 | 9.7 | 0.00 | 0.00 | 0.00 | 47 | 1019.2 |
| 20260903160056 | 27 | 173 | 0.0 | 8.0 | 0.00 | 0.00 | 0.00 | 48 | 1019.2 |
| 20260903155558 | 26 | 188 | 1.6 | 9.7 | 0.00 | 0.00 | 0.00 | 49 | 1019.1 |
| 20260903155056 | 26 | 209 | 3.2 | 9.7 | 0.00 | 0.00 | 0.00 | 49 | 1019.2 |
| 20260903154554 | 26 | 129 | 3.2 | 8.0 | 0.00 | 0.00 | 0.00 | 50 | 1019.2 |
| 20260903154054 | 26 | 153 | 3.2 | 12.9 | 0.00 | 0.00 | 0.00 | 50 | 1019.3 |
| 20260903153553 | 26 | 173 | 6.4 | 12.9 | 0.00 | 0.00 | 0.00 | 50 | 1019.4 |
| 20260903153106 | 26 | 161 | 6.4 | 12.9 | 0.00 | 0.00 | 0.00 | 49 | 1019.4 |
| 20260903152556 | 26 | 206 | 6.4 | 12.9 | 0.00 | 0.00 | 0.00 | 50 | 1019.3 |
| 20260903152056 | 26 | 184 | 4.8 | 9.7 | 0.00 | 0.00 | 0.00 | 51 | 1019.4 |
| 20260903151553 | 26 | 225 | 3.2 | 11.3 | 0.00 | 0.00 | 0.00 | 50 | 1019.4 |
| 20260903151052 | 26 | 210 | 4.8 | 12.9 | 0.00 | 0.00 | 0.00 | 50 | 1019.3 |
| 20260903150552 | 26 | 261 | 6.4 | 12.9 | 0.00 | 0.00 | 0.00 | 50 | 1019.3 |
| 20260903150051 | 26 | 248 | 4.8 | 14.5 | 0.00 | 0.00 | 0.00 | 50 | 1019.4 |
| 20260903145549 | 26 | 196 | 6.4 | 14.5 | 0.00 | 0.00 | 0.00 | 51 | 1019.4 |
| 20260903145048 | 26 | 218 | 6.4 | 11.3 | 0.00 | 0.00 | 0.00 | 51 | 1019.3 |
| 20260903144548 | 25 | 249 | 1.6 | 12.9 | 0.00 | 0.00 | 0.00 | 52 | 1019.4 |
| 20260903144049 | 25 | 189 | 1.6 | 12.9 | 0.00 | 0.00 | 0.00 | 52 | 1019.4 |
| 20260903143545 | 25 | 256 | 4.8 | 14.5 | 0.00 | 0.00 | 0.00 | 52 | 1019.3 |
| 20260903143048 | 25 | 248 | 1.6 | 14.5 | 0.00 | 0.00 | 0.00 | 52 | 1019.4 |
| 20260903142547 | 25 | 215 | 3.2 | 12.9 | 0.00 | 0.00 | 0.00 | 52 | 1019.4 |
| 20260903142043 | 25 | 157 | 4.8 | 12.9 | 0.00 | 0.00 | 0.00 | 52 | 1019.4 |
| 20260903141543 | 25 | 190 | 4.8 | 11.3 | 0.00 | 0.00 | 0.00 | 53 | 1019.4 |
| 20260903141045 | 25 | 157 | 1.6 | 11.3 | 0.00 | 0.00 | 0.00 | 53 | 1019.4 |
| 20260903140540 | 24 | 142 | 3.2 | 6.4 | 0.00 | 0.00 | 0.00 | 53 | 1019.5 |
| 20260903140044 | 24 | 155 | 1.6 | 9.7 | 0.00 | 0.00 | 0.00 | 54 | 1019.5 |
| 20260903135538 | 24 | 136 | 3.2 | 9.7 | 0.00 | 0.00 | 0.00 | 55 | 1019.5 |
| 20260903135042 | 23 | 159 | 1.6 | 6.4 | 0.00 | 0.00 | 0.00 | 56 | 1019.4 |
| 20260903134537 | 23 | 188 | 0.0 | 6.4 | 0.00 | 0.00 | 0.00 | 56 | 1019.3 |
| 20260903134036 | 23 | 176 | 1.6 | 6.4 | 0.00 | 0.00 | 0.00 | 56 | 1019.3 |
| 20260903133538 | 23 | 199 | 1.6 | 6.4 | 0.00 | 0.00 | 0.00 | 56 | 1019.3 |
| 20260903133037 | 23 | 119 | 0.0 | 8.0 | 0.00 | 0.00 | 0.00 | 56 | 1019.2 |
| 20260903132535 | 23 | 119 | 1.6 | 8.0 | 0.00 | 0.00 | 0.00 | 57 | 1019.2 |
| 20260903132034 | 23 | 128 | 0.0 | 11.3 | 0.00 | 0.00 | 0.00 | 56 | 1019.2 |
| 20260903131533 | 23 | 138 | 1.6 | 11.3 | 0.00 | 0.00 | 0.00 | 56 | 1019.1 |
| 20260903131034 | 23 | 130 | 1.6 | 9.7 | 0.00 | 0.00 | 0.00 | 57 | 1019.1 |
| 20260903130529 | 22 | 142 | 3.2 | 8.0 | 0.00 | 0.00 | 0.00 | 57 | 1019.1 |
| 20260903130029 | 22 | 150 | 3.2 | 8.0 | 0.00 | 0.00 | 0.00 | 57 | 1019.1 |
| 20260903125528 | 22 | 144 | 3.2 | 11.3 | 0.00 | 0.00 | 0.00 | 57 | 1019.0 |
| 20260903125028 | 23 | 123 | 3.2 | 11.3 | 0.00 | 0.00 | 0.00 | 57 | 1018.9 |
| 20260903124530 | 23 | 153 | 4.8 | 9.7 | 0.00 | 0.00 | 0.00 | 57 | 1018.9 |
| 20260903124027 | 22 | 150 | 4.8 | 9.7 | 0.00 | 0.00 | 0.00 | 57 | 1018.9 |
| 20260903123525 | 22 | 155 | 4.8 | 11.3 | 0.00 | 0.00 | 0.00 | 57 | 1018.8 |
| 20260903123030 | 22 | 162 | 4.8 | 11.3 | 0.00 | 0.00 | 0.00 | 57 | 1018.8 |
| 20260903122524 | 22 | 140 | 4.8 | 9.7 | 0.00 | 0.00 | 0.00 | 58 | 1018.8 |
| 20260903122024 | 22 | 172 | 1.6 | 8.0 | 0.00 | 0.00 | 0.00 | 58 | 1018.7 |
| 20260903121525 | 22 | 169 | 3.2 | 12.9 | 0.00 | 0.00 | 0.00 | 58 | 1018.7 |
| 20260903121021 | 23 | 161 | 4.8 | 14.5 | 0.00 | 0.00 | 0.00 | 57 | 1018.7 |
| 20260903120520 | 23 | 155 | 6.4 | 14.5 | 0.00 | 0.00 | 0.00 | 56 | 1018.7 |
| 20260903120019 | 23 | 202 | 6.4 | 12.9 | 0.00 | 0.00 | 0.00 | 56 | 1018.5 |
| 20260903115517 | 23 | 205 | 4.8 | 16.1 | 0.00 | 0.00 | 0.00 | 56 | 1018.4 |
| 20260903115016 | 23 | 201 | 9.7 | 16.1 | 0.00 | 0.00 | 0.00 | 55 | 1018.3 |
| 20260903114515 | 23 | 192 | 6.4 | 16.1 | 0.00 | 0.00 | 0.00 | 56 | 1018.2 |
| 20260903114013 | 23 | 194 | 8.0 | 16.1 | 0.00 | 0.00 | 0.00 | 56 | 1018.1 |
| 20260903113513 | 23 | 198 | 6.4 | 11.3 | 0.00 | 0.00 | 0.00 | 55 | 1018.0 |
| 20260903113012 | 23 | 198 | 6.4 | 9.7 | 0.00 | 0.00 | 0.00 | 55 | 1018.1 |
| 20260903112513 | 23 | 142 | 0.0 | 4.8 | 0.00 | 0.00 | 0.00 | 55 | 1018.0 |
| 20260903112012 | 23 | 129 | 0.0 | 6.4 | 0.00 | 0.00 | 0.00 | 55 | 1017.9 |
| 20260903111514 | 24 | 129 | 1.6 | 9.7 | 0.00 | 0.00 | 0.00 | 55 | 1017.9 |
| 20260903111011 | 24 | 216 | 4.8 | 9.7 | 0.00 | 0.00 | 0.00 | 54 | 1017.8 |
| 20260903110511 | 24 | 219 | 4.8 | 8.0 | 0.00 | 0.00 | 0.00 | 55 | 1017.8 |
| 20260903110010 | 24 | 296 | 1.6 | 8.0 | 0.00 | 0.00 | 0.00 | 54 | 1017.9 |
| 20260903105510 | 24 | 312 | 3.2 | 8.0 | 0.00 | 0.00 | 0.00 | 54 | 1018.0 |
| 20260903105010 | 24 | 321 | 0.0 | 8.0 | 0.00 | 0.00 | 0.00 | 53 | 1017.9 |
| 20260903104510 | 24 | 215 | 1.6 | 8.0 | 0.00 | 0.00 | 0.00 | 53 | 1018.0 |
| 20260903104011 | 24 | 211 | 0.0 | 6.4 | 0.00 | 0.00 | 0.00 | 52 | 1017.9 |
| 20260903103509 | 25 | 173 | 0.0 | 6.4 | 0.00 | 0.00 | 0.00 | 52 | 1018.1 |
| 20260903103007 | 25 | 173 | 0.0 | 3.2 | 0.00 | 0.00 | 0.00 | 51 | 1018.1 |
| 20260903102508 | 25 | 173 | 0.0 | 3.2 | 0.00 | 0.00 | 0.00 | 51 | 1018.2 |
| 20260903102009 | 25 | 173 | 0.0 | 6.4 | 0.00 | 0.00 | 0.00 | 51 | 1018.1 |
| 20260903101507 | 25 | 225 | 0.0 | 3.2 | 0.00 | 0.00 | 0.00 | 51 | 1018.2 |
| 20260903101106 | 25 | 241 | 0.0 | 3.2 | 0.00 | 0.00 | 0.00 | 51 | 1018.2 |
| 20260903100506 | 25 | 241 | 1.6 | 8.0 | 0.00 | 0.00 | 0.00 | 50 | 1018.2 |
| 20260903100005 | 25 | 241 | 0.0 | 11.3 | 0.00 | 0.00 | 0.00 | 50 | 1018.1 |
| 20260903095504 | 25 | 241 | 6.4 | 11.3 | 0.00 | 0.00 | 0.00 | 49 | 1018.2 |
| 20260903095004 | 25 | 281 | 4.8 | 9.7 | 0.00 | 0.00 | 0.00 | 49 | 1018.1 |
| 20260903094511 | 25 | 246 | 1.6 | 11.3 | 0.00 | 0.00 | 0.00 | 48 | 1018.2 |
| 20260903094002 | 25 | 246 | 1.6 | 11.3 | 0.00 | 0.00 | 0.00 | 47 | 1018.2 |
| 20260903093503 | 25 | 304 | 0.0 | 6.4 | 0.00 | 0.00 | 0.00 | 47 | 1018.3 |
| 20260903093004 | 25 | 304 | 1.6 | 6.4 | 0.00 | 0.00 | 0.00 | 47 | 1018.2 |
| 20260903092503 | 25 | 165 | 0.0 | 9.7 | 0.00 | 0.00 | 0.00 | 47 | 1018.2 |
| 20260903092001 | 25 | 165 | 1.6 | 9.7 | 0.00 | 0.00 | 0.00 | 46 | 1018.2 |
| 20260903091601 | 25 | 146 | 0.0 | 11.3 | 0.00 | 0.00 | 0.00 | 46 | 1018.1 |
| 20260903091100 | 25 | 146 | 3.2 | 11.3 | 0.00 | 0.00 | 0.00 | 46 | 1018.1 |
| 20260903090600 | 25 | 126 | 0.0 | 6.4 | 0.00 | 0.00 | 0.00 | 46 | 1018.1 |
| 20260903090105 | 25 | 141 | 0.0 | 8.0 | 0.00 | 0.00 | 0.00 | 45 | 1018.1 |
| 20260903085559 | 25 | 155 | 1.6 | 8.0 | 0.00 | 0.00 | 0.00 | 45 | 1018.0 |
| 20260903085058 | 25 | 160 | 1.6 | 8.0 | 0.00 | 0.00 | 0.00 | 44 | 1017.9 |
| 20260903084558 | 25 | 156 | 1.6 | 8.0 | 0.00 | 0.00 | 0.00 | 44 | 1017.9 |
| 20260903084058 | 25 | 201 | 0.0 | 8.0 | 0.00 | 0.00 | 0.00 | 43 | 1017.8 |
| 20260903083557 | 25 | 199 | 1.6 | 8.0 | 0.00 | 0.00 | 0.00 | 44 | 1017.8 |
| 20260903083101 | 26 | 193 | 1.6 | 8.0 | 0.00 | 0.00 | 0.00 | 42 | 1017.8 |
| 20260903082554 | 26 | 244 | 0.0 | 6.4 | 0.00 | 0.00 | 0.00 | 42 | 1017.9 |
| 20260903082053 | 26 | 252 | 1.6 | 6.4 | 0.00 | 0.00 | 0.00 | 41 | 1017.9 |
| 20260903081558 | 26 | 263 | 0.0 | 9.7 | 0.00 | 0.00 | 0.00 | 40 | 1017.8 |
| 20260903081053 | 26 | 295 | 3.2 | 11.3 | 0.00 | 0.00 | 0.00 | 40 | 1017.8 |
| 20260903080554 | 26 | 236 | 3.2 | 11.3 | 0.00 | 0.00 | 0.00 | 38 | 1017.8 |
| 20260903080051 | 26 | 269 | 6.4 | 12.9 | 0.00 | 0.00 | 0.00 | 38 | 1017.8 |
| 20260903075551 | 27 | 263 | 6.4 | 11.3 | 0.00 | 0.00 | 0.00 | 37 | 1017.8 |
| 20260903075051 | 27 | 212 | 0.0 | 8.0 | 0.00 | 0.00 | 0.00 | 37 | 1017.8 |
| 20260903074602 | 27 | 249 | 1.6 | 14.5 | 0.00 | 0.00 | 0.00 | 37 | 1017.9 |
| 20260903074049 | 27 | 256 | 6.4 | 14.5 | 0.00 | 0.00 | 0.00 | 37 | 1017.8 |
| 20260903073549 | 26 | 200 | 0.0 | 6.4 | 0.00 | 0.00 | 0.00 | 39 | 1017.7 |
| 20260903073102 | 27 | 202 | 3.2 | 6.4 | 0.00 | 0.00 | 0.00 | 39 | 1017.8 |
| 20260903072547 | 27 | 330 | 1.6 | 6.4 | 0.00 | 0.00 | 0.00 | 37 | 1017.5 |
| 20260903072047 | 27 | 355 | 0.0 | 6.4 | 0.00 | 0.00 | 0.00 | 37 | 1017.5 |
| 20260903071604 | 26 | 320 | 1.6 | 6.4 | 0.00 | 0.00 | 0.00 | 38 | 1017.5 |
| 20260903071050 | 26 | 290 | 0.0 | 3.2 | 0.00 | 0.00 | 0.00 | 38 | 1017.5 |
| 20260903070545 | 27 | 290 | 0.0 | 0.0 | 0.00 | 0.00 | 0.00 | 37 | 1017.5 |
| 20260903070044 | 27 | 290 | 0.0 | 0.0 | 0.00 | 0.00 | 0.00 | 36 | 1017.5 |
| 20260903065543 | 27 | 290 | 0.0 | 3.2 | 0.00 | 0.00 | 0.00 | 35 | 1017.5 |
| 20260903065041 | 27 | 290 | 0.0 | 3.2 | 0.00 | 0.00 | 0.00 | 34 | 1017.5 |
| 20260903064541 | 28 | 276 | 0.0 | 6.4 | 0.00 | 0.00 | 0.00 | 34 | 1017.5 |
| 20260903064041 | 28 | 276 | 0.0 | 6.4 | 0.00 | 0.00 | 0.00 | 33 | 1017.5 |
| 20260903063540 | 28 | 300 | 1.6 | 6.4 | 0.00 | 0.00 | 0.00 | 33 | 1017.5 |
| 20260903063046 | 28 | 325 | 0.0 | 3.2 | 0.00 | 0.00 | 0.00 | 33 | 1017.5 |
| 20260903062540 | 28 | 325 | 0.0 | 3.2 | 0.00 | 0.00 | 0.00 | 34 | 1017.5 |
| 20260903062042 | 28 | 315 | 0.0 | 3.2 | 0.00 | 0.00 | 0.00 | 34 | 1017.6 |
| 20260903061539 | 28 | 262 | 0.0 | 6.4 | 0.00 | 0.00 | 0.00 | 34 | 1017.5 |
| 20260903061036 | 28 | 262 | 1.6 | 6.4 | 0.00 | 0.00 | 0.00 | 34 | 1017.6 |
| 20260903060533 | 28 | 256 | 0.0 | 6.4 | 0.00 | 0.00 | 0.00 | 34 | 1017.5 |
| 20260903060106 | 28 | 256 | 0.0 | 6.4 | 0.00 | 0.00 | 0.00 | 34 | 1017.6 |
| 20260903055533 | 28 | 234 | 1.6 | 6.4 | 0.00 | 0.00 | 0.00 | 33 | 1017.7 |
| 20260903055031 | 27 | 250 | 0.0 | 3.2 | 0.00 | 0.00 | 0.00 | 35 | 1017.7 |
| 20260903054535 | 27 | 250 | 0.0 | 0.0 | 0.00 | 0.00 | 0.00 | 34 | 1017.7 |
| 20260903054034 | 28 | 250 | 0.0 | 1.6 | 0.00 | 0.00 | 0.00 | 34 | 1017.8 |
| 20260903053531 | 28 | 250 | 0.0 | 6.4 | 0.00 | 0.00 | 0.00 | 34 | 1017.8 |
| 20260903053032 | 28 | 250 | 0.0 | 4.8 | 0.00 | 0.00 | 0.00 | 33 | 1017.8 |
| 20260903052531 | 28 | 256 | 0.0 | 8.0 | 0.00 | 0.00 | 0.00 | 33 | 1017.7 |
| 20260903052031 | 28 | 231 | 0.0 | 8.0 | 0.00 | 0.00 | 0.00 | 33 | 1017.7 |
| 20260903051531 | 28 | 238 | 0.0 | 6.4 | 0.00 | 0.00 | 0.00 | 33 | 1017.7 |
| 20260903051031 | 28 | 232 | 0.0 | 6.4 | 0.00 | 0.00 | 0.00 | 33 | 1017.7 |
| 20260903050530 | 28 | 225 | 0.0 | 8.0 | 0.00 | 0.00 | 0.00 | 34 | 1017.7 |
| 20260903050033 | 28 | 225 | 1.6 | 8.0 | 0.00 | 0.00 | 0.00 | 33 | 1017.7 |
| 20260903045531 | 28 | 214 | 0.0 | 3.2 | 0.00 | 0.00 | 0.00 | 34 | 1017.7 |
| 20260903045030 | 28 | 214 | 1.6 | 3.2 | 0.00 | 0.00 | 0.00 | 34 | 1017.7 |
| 20260903044530 | 29 | 214 | 0.0 | 3.2 | 0.00 | 0.00 | 0.00 | 33 | 1017.8 |
| 20260903044029 | 29 | 214 | 0.0 | 3.2 | 0.00 | 0.00 | 0.00 | 33 | 1017.7 |
| 20260903043529 | 29 | 239 | 0.0 | 3.2 | 0.00 | 0.00 | 0.00 | 32 | 1017.7 |
| 20260903043029 | 30 | 239 | 0.0 | 3.2 | 0.00 | 0.00 | 0.00 | 31 | 1017.6 |
| 20260903042529 | 30 | 240 | 0.0 | 3.2 | 0.00 | 0.00 | 0.00 | 31 | 1017.6 |
| 20260903042029 | 30 | 240 | 1.6 | 8.0 | 0.00 | 0.00 | 0.00 | 31 | 1017.7 |
| 20260903041528 | 30 | 210 | 0.0 | 8.0 | 0.00 | 0.00 | 0.00 | 30 | 1017.6 |
| 20260903041029 | 30 | 215 | 3.2 | 9.7 | 0.00 | 0.00 | 0.00 | 30 | 1017.6 |
| 20260903040529 | 30 | 226 | 3.2 | 9.7 | 0.00 | 0.00 | 0.00 | 31 | 1017.6 |
| 20260903040048 | 30 | 234 | 0.0 | 3.2 | 0.00 | 0.00 | 0.00 | 32 | 1017.5 |
| 20260903035528 | 30 | 234 | 0.0 | 1.6 | 0.00 | 0.00 | 0.00 | 32 | 1017.5 |
| 20260903035028 | 30 | 234 | 0.0 | 1.6 | 0.00 | 0.00 | 0.00 | 32 | 1017.4 |
| 20260903034528 | 30 | 234 | 0.0 | 1.6 | 0.00 | 0.00 | 0.00 | 32 | 1017.4 |
| 20260903034028 | 30 | 234 | 0.0 | 1.6 | 0.00 | 0.00 | 0.00 | 33 | 1017.4 |
| 20260903033527 | 30 | 234 | 0.0 | 1.6 | 0.00 | 0.00 | 0.00 | 32 | 1017.4 |
| 20260903033031 | 30 | 234 | 0.0 | 1.6 | 0.00 | 0.00 | 0.00 | 32 | 1017.4 |
| 20260903032526 | 30 | 234 | 0.0 | 1.6 | 0.00 | 0.00 | 0.00 | 32 | 1017.2 |
| 20260903032025 | 30 | 234 | 0.0 | 0.0 | 0.00 | 0.00 | 0.00 | 33 | 1017.2 |
| 20260903031531 | 30 | 234 | 0.0 | 0.0 | 0.00 | 0.00 | 0.00 | 33 | 1017.1 |
| 20260903031023 | 30 | 234 | 0.0 | 0.0 | 0.00 | 0.00 | 0.00 | 33 | 1017.1 |
| 20260903030522 | 30 | 234 | 0.0 | 0.0 | 0.00 | 0.00 | 0.00 | 33 | 1017.0 |
| 20260903030023 | 30 | 234 | 0.0 | 1.6 | 0.00 | 0.00 | 0.00 | 32 | 1016.9 |
| 20260903025523 | 30 | 234 | 0.0 | 1.6 | 0.00 | 0.00 | 0.00 | 31 | 1016.8 |
| 20260903025022 | 31 | 234 | 0.0 | 1.6 | 0.00 | 0.00 | 0.00 | 30 | 1016.8 |
| 20260903024522 | 31 | 234 | 0.0 | 1.6 | 0.00 | 0.00 | 0.00 | 30 | 1016.7 |
| 20260903024022 | 31 | 234 | 0.0 | 1.6 | 0.00 | 0.00 | 0.00 | 29 | 1016.6 |
| 20260903023521 | 31 | 234 | 0.0 | 3.2 | 0.00 | 0.00 | 0.00 | 29 | 1016.6 |
| 20260903023033 | 31 | 234 | 0.0 | 3.2 | 0.00 | 0.00 | 0.00 | 28 | 1016.6 |
| 20260903022522 | 31 | 234 | 0.0 | 6.4 | 0.00 | 0.00 | 0.00 | 27 | 1016.5 |
| 20260903022021 | 31 | 234 | 1.6 | 6.4 | 0.00 | 0.00 | 0.00 | 27 | 1016.5 |
| 20260903021521 | 31 | 248 | 1.6 | 6.4 | 0.00 | 0.00 | 0.00 | 26 | 1016.5 |
| 20260903021022 | 31 | 255 | 1.6 | 6.4 | 0.00 | 0.00 | 0.00 | 27 | 1016.4 |
| 20260903020520 | 32 | 255 | 1.6 | 8.0 | 0.00 | 0.00 | 0.00 | 26 | 1016.4 |
| 20260903020021 | 32 | 261 | 3.2 | 9.7 | 0.00 | 0.00 | 0.00 | 26 | 1016.4 |
| 20260903015520 | 32 | 267 | 6.4 | 9.7 | 0.00 | 0.00 | 0.00 | 26 | 1016.4 |
| 20260903015020 | 32 | 259 | 3.2 | 8.0 | 0.00 | 0.00 | 0.00 | 27 | 1016.3 |
| 20260903014522 | 32 | 260 | 1.6 | 9.7 | 0.00 | 0.00 | 0.00 | 27 | 1016.3 |
| 20260903014020 | 32 | 250 | 4.8 | 9.7 | 0.00 | 0.00 | 0.00 | 26 | 1016.1 |
| 20260903013520 | 32 | 276 | 3.2 | 9.7 | 0.00 | 0.00 | 0.00 | 26 | 1016.2 |
| 20260903013020 | 32 | 248 | 3.2 | 9.7 | 0.00 | 0.00 | 0.00 | 26 | 1016.2 |
| 20260903012519 | 32 | 252 | 4.8 | 9.7 | 0.00 | 0.00 | 0.00 | 25 | 1016.2 |
| 20260903012020 | 32 | 223 | 3.2 | 9.7 | 0.00 | 0.00 | 0.00 | 25 | 1016.3 |
| 20260903011519 | 32 | 234 | 1.6 | 11.3 | 0.00 | 0.00 | 0.00 | 26 | 1016.2 |
| 20260903011020 | 32 | 261 | 4.8 | 11.3 | 0.00 | 0.00 | 0.00 | 26 | 1016.2 |
| 20260903010519 | 32 | 271 | 1.6 | 9.7 | 0.00 | 0.00 | 0.00 | 26 | 1016.2 |
| 20260903010037 | 32 | 249 | 4.8 | 11.3 | 0.00 | 0.00 | 0.00 | 25 | 1016.1 |
| 20260903005522 | 32 | 242 | 4.8 | 11.3 | 0.00 | 0.00 | 0.00 | 25 | 1016.1 |
| 20260903005021 | 33 | 212 | 4.8 | 11.3 | 0.00 | 0.00 | 0.00 | 25 | 1016.1 |
| 20260903004519 | 33 | 306 | 6.4 | 11.3 | 0.00 | 0.00 | 0.00 | 24 | 1016.1 |
| 20260903004018 | 33 | 305 | 4.8 | 11.3 | 0.00 | 0.00 | 0.00 | 24 | 1016.1 |
| 20260903003518 | 33 | 329 | 3.2 | 11.3 | 0.00 | 0.00 | 0.00 | 24 | 1016.1 |
| 20260903003018 | 33 | 223 | 3.2 | 11.3 | 0.00 | 0.00 | 0.00 | 24 | 1016.1 |
| 20260903002519 | 33 | 230 | 4.8 | 11.3 | 0.00 | 0.00 | 0.00 | 24 | 1016.2 |
| 20260903002017 | 33 | 343 | 4.8 | 11.3 | 0.00 | 0.00 | 0.00 | 24 | 1016.2 |
| 20260903001528 | 33 | 297 | 6.4 | 12.9 | 0.00 | 0.00 | 0.00 | 24 | 1016.2 |
| 20260903001017 | 33 | 239 | 4.8 | 16.1 | 0.00 | 0.00 | 0.00 | 24 | 1016.3 |
| 20260903000518 | 33 | 252 | 9.7 | 16.1 | 0.00 | 0.00 | 0.00 | 24 | 1016.3 |
| 20260903000016 | 34 | 224 | 3.2 | 11.3 | 0.00 | 0.00 | 0.00 | 24 | 1016.3 |
| 20260902235516 | 34 | 254 | 3.2 | 12.9 | 0.00 | 0.00 | 0.00 | 24 | 1016.3 |
| 20260902235018 | 34 | 304 | 8.0 | 12.9 | 0.00 | 0.00 | 0.00 | 24 | 1016.3 |
| 20260902234521 | 34 | 266 | 4.8 | 9.7 | 0.00 | 0.00 | 0.00 | 25 | 1016.3 |
| 20260902234017 | 34 | 290 | 6.4 | 9.7 | 0.00 | 0.00 | 0.00 | 25 | 1016.3 |
| 20260902233515 | 34 | 242 | 3.2 | 11.3 | 0.00 | 0.00 | 0.00 | 25 | 1016.4 |
| 20260902233014 | 34 | 234 | 6.4 | 12.9 | 0.00 | 0.00 | 0.00 | 24 | 1016.5 |
| 20260902232513 | 34 | 230 | 8.0 | 17.7 | 0.00 | 0.00 | 0.00 | 25 | 1016.5 |
| 20260902232012 | 34 | 310 | 8.0 | 17.7 | 0.00 | 0.00 | 0.00 | 25 | 1016.5 |
| 20260902231529 | 34 | 244 | 9.7 | 14.5 | 0.00 | 0.00 | 0.00 | 25 | 1016.6 |
| 20260902231012 | 34 | 303 | 8.0 | 14.5 | 0.00 | 0.00 | 0.00 | 25 | 1016.7 |
| 20260902230511 | 34 | 316 | 4.8 | 11.3 | 0.00 | 0.00 | 0.00 | 25 | 1016.7 |
| 20260902230012 | 34 | 242 | 3.2 | 17.7 | 0.00 | 0.00 | 0.00 | 24 | 1016.7 |
| 20260902225510 | 34 | 292 | 8.0 | 16.1 | 0.00 | 0.00 | 0.00 | 25 | 1016.8 |
| 20260902225012 | 34 | 223 | 6.4 | 14.5 | 0.00 | 0.00 | 0.00 | 25 | 1016.8 |
| 20260902224511 | 34 | 213 | 8.0 | 16.1 | 0.00 | 0.00 | 0.00 | 25 | 1016.9 |
| 20260902224011 | 35 | 257 | 11.3 | 19.3 | 0.00 | 0.00 | 0.00 | 24 | 1016.9 |
| 20260902223509 | 35 | 236 | 11.3 | 20.9 | 0.00 | 0.00 | 0.00 | 23 | 1016.9 |
| 20260902223012 | 35 | 230 | 9.7 | 22.5 | 0.00 | 0.00 | 0.00 | 24 | 1016.9 |
| 20260902222509 | 35 | 326 | 6.4 | 14.5 | 0.00 | 0.00 | 0.00 | 24 | 1016.9 |
| 20260902222008 | 35 | 224 | 8.0 | 19.3 | 0.00 | 0.00 | 0.00 | 24 | 1016.8 |
| 20260902221507 | 35 | 301 | 8.0 | 19.3 | 0.00 | 0.00 | 0.00 | 24 | 1016.9 |
| 20260902221010 | 35 | 305 | 8.0 | 14.5 | 0.00 | 0.00 | 0.00 | 24 | 1017.0 |
| 20260902220507 | 35 | 281 | 6.4 | 12.9 | 0.00 | 0.00 | 0.00 | 24 | 1017.0 |
| 20260902220011 | 35 | 299 | 6.4 | 17.7 | 0.00 | 0.00 | 0.00 | 24 | 1017.0 |
| 20260902215506 | 35 | 263 | 8.0 | 17.7 | 0.00 | 0.00 | 0.00 | 24 | 1017.0 |
| 20260902215009 | 35 | 225 | 9.7 | 17.7 | 0.00 | 0.00 | 0.00 | 24 | 1017.1 |
| 20260902214505 | 34 | 149 | 4.8 | 17.7 | 0.00 | 0.00 | 0.00 | 25 | 1017.1 |
| 20260902214005 | 34 | 157 | 8.0 | 16.1 | 0.00 | 0.00 | 0.00 | 25 | 1017.2 |
| 20260902213504 | 35 | 215 | 4.8 | 17.7 | 0.00 | 0.00 | 0.00 | 24 | 1017.2 |
| 20260902213006 | 35 | 196 | 8.0 | 17.7 | 0.00 | 0.00 | 0.00 | 25 | 1017.3 |
| 20260902212504 | 35 | 314 | 3.2 | 17.7 | 0.00 | 0.00 | 0.00 | 24 | 1017.4 |
| 20260902212006 | 35 | 192 | 8.0 | 17.7 | 0.00 | 0.00 | 0.00 | 24 | 1017.4 |
| 20260902211502 | 35 | 182 | 8.0 | 16.1 | 0.00 | 0.00 | 0.00 | 23 | 1017.5 |
| 20260902211002 | 35 | 237 | 9.7 | 16.1 | 0.00 | 0.00 | 0.00 | 24 | 1017.5 |
| 20260902210502 | 35 | 214 | 9.7 | 17.7 | 0.00 | 0.00 | 0.00 | 24 | 1017.7 |
| 20260902205559 | 35 | 206 | 9.7 | 20.9 | 0.00 | 0.00 | 0.00 | 24 | 1017.7 |
| 20260902205101 | 34 | 257 | 1.6 | 12.9 | 0.00 | 0.00 | 0.00 | 25 | 1017.8 |
| 20260902204558 | 34 | 204 | 4.8 | 11.3 | 0.00 | 0.00 | 0.00 | 25 | 1017.8 |
| 20260902204056 | 34 | 263 | 6.4 | 14.5 | 0.00 | 0.00 | 0.00 | 25 | 1018.0 |
| 20260902203556 | 34 | 243 | 4.8 | 14.5 | 0.00 | 0.00 | 0.00 | 24 | 1018.1 |
| 20260902203055 | 35 | 246 | 6.4 | 14.5 | 0.00 | 0.00 | 0.00 | 25 | 1018.1 |
| 20260902202556 | 35 | 158 | 3.2 | 16.1 | 0.00 | 0.00 | 0.00 | 25 | 1018.2 |
| 20260902202054 | 34 | 207 | 8.0 | 16.1 | 0.00 | 0.00 | 0.00 | 25 | 1018.4 |
| 20260902201553 | 35 | 304 | 9.7 | 14.5 | 0.00 | 0.00 | 0.00 | 24 | 1018.4 |
| 20260902201052 | 34 | 119 | 0.0 | 14.5 | 0.00 | 0.00 | 0.00 | 26 | 1018.5 |
| 20260902200551 | 34 | 164 | 4.8 | 14.5 | 0.00 | 0.00 | 0.00 | 25 | 1018.6 |
| 20260902200051 | 33 | 131 | 4.8 | 12.9 | 0.00 | 0.00 | 0.00 | 26 | 1018.7 |
| 20260902195550 | 34 | 313 | 3.2 | 12.9 | 0.00 | 0.00 | 0.00 | 26 | 1018.7 |
| 20260902195047 | 34 | 212 | 6.4 | 16.1 | 0.00 | 0.00 | 0.00 | 25 | 1018.8 |
| 20260902194547 | 34 | 220 | 8.0 | 16.1 | 0.00 | 0.00 | 0.00 | 25 | 1018.9 |
| 20260902194046 | 34 | 140 | 4.8 | 14.5 | 0.00 | 0.00 | 0.00 | 26 | 1018.9 |
| 20260902193545 | 34 | 163 | 4.8 | 14.5 | 0.00 | 0.00 | 0.00 | 26 | 1019.0 |
| 20260902193045 | 33 | 85 | 3.2 | 20.9 | 0.00 | 0.00 | 0.00 | 27 | 1019.0 |
| 20260902192544 | 33 | 117 | 9.7 | 20.9 | 0.00 | 0.00 | 0.00 | 27 | 1019.1 |
| 20260902192049 | 33 | 173 | 8.0 | 17.7 | 0.00 | 0.00 | 0.00 | 27 | 1019.1 |
| 20260902191543 | 33 | 325 | 1.6 | 16.1 | 0.00 | 0.00 | 0.00 | 28 | 1019.2 |
| 20260902191042 | 33 | 153 | 8.0 | 16.1 | 0.00 | 0.00 | 0.00 | 28 | 1019.3 |
| 20260902190542 | 33 | 130 | 6.4 | 16.1 | 0.00 | 0.00 | 0.00 | 28 | 1019.3 |
| 20260902190043 | 33 | 167 | 8.0 | 14.5 | 0.00 | 0.00 | 0.00 | 27 | 1019.4 |
| 20260902185541 | 33 | 300 | 3.2 | 17.7 | 0.00 | 0.00 | 0.00 | 28 | 1019.4 |
| 20260902185043 | 32 | 217 | 6.4 | 17.7 | 0.00 | 0.00 | 0.00 | 29 | 1019.5 |
| 20260902184539 | 32 | 171 | 1.6 | 12.9 | 0.00 | 0.00 | 0.00 | 29 | 1019.6 |
| 20260902184038 | 32 | 173 | 4.8 | 16.1 | 0.00 | 0.00 | 0.00 | 29 | 1019.8 |
| 20260902183538 | 32 | 144 | 4.8 | 16.1 | 0.00 | 0.00 | 0.00 | 29 | 1019.8 |
| 20260902183037 | 32 | 195 | 3.2 | 16.1 | 0.00 | 0.00 | 0.00 | 29 | 1019.9 |
| 20260902182535 | 32 | 150 | 8.0 | 12.9 | 0.00 | 0.00 | 0.00 | 30 | 1019.9 |
| 20260902182037 | 32 | 269 | 4.8 | 14.5 | 0.00 | 0.00 | 0.00 | 30 | 1020.1 |
| 20260902181534 | 32 | 193 | 8.0 | 16.1 | 0.00 | 0.00 | 0.00 | 29 | 1020.1 |
| 20260902181034 | 32 | 260 | 1.6 | 16.1 | 0.00 | 0.00 | 0.00 | 31 | 1020.1 |
| 20260902180533 | 32 | 223 | 9.7 | 16.1 | 0.00 | 0.00 | 0.00 | 31 | 1020.3 |
| 20260902180031 | 31 | 269 | 4.8 | 14.5 | 0.00 | 0.00 | 0.00 | 30 | 1020.3 |
| 20260902175530 | 32 | 234 | 9.7 | 14.5 | 0.00 | 0.00 | 0.00 | 31 | 1020.3 |
| 20260902175028 | 31 | 171 | 6.4 | 14.5 | 0.00 | 0.00 | 0.00 | 32 | 1020.3 |
| 20260902174532 | 31 | 276 | 6.4 | 12.9 | 0.00 | 0.00 | 0.00 | 32 | 1020.3 |
| 20260902174025 | 31 | 244 | 6.4 | 12.9 | 0.00 | 0.00 | 0.00 | 32 | 1020.4 |
| 20260902173524 | 31 | 247 | 6.4 | 16.1 | 0.00 | 0.00 | 0.00 | 32 | 1020.4 |
| 20260902173032 | 31 | 238 | 9.7 | 16.1 | 0.00 | 0.00 | 0.00 | 33 | 1020.5 |
| 20260902172524 | 31 | 224 | 6.4 | 14.5 | 0.00 | 0.00 | 0.00 | 34 | 1020.5 |
| 20260902172020 | 30 | 143 | 3.2 | 16.1 | 0.00 | 0.00 | 0.00 | 35 | 1020.5 |
| 20260902171519 | 30 | 208 | 8.0 | 16.1 | 0.00 | 0.00 | 0.00 | 35 | 1020.6 |
| 20260902171018 | 30 | 172 | 4.8 | 12.9 | 0.00 | 0.00 | 0.00 | 36 | 1020.6 |
| 20260902170521 | 30 | 202 | 6.4 | 16.1 | 0.00 | 0.00 | 0.00 | 35 | 1020.7 |
| 20260902170018 | 30 | 207 | 9.7 | 16.1 | 0.00 | 0.00 | 0.00 | 35 | 1020.6 |
| 20260902165513 | 30 | 234 | 6.4 | 12.9 | 0.00 | 0.00 | 0.00 | 35 | 1020.6 |
| 20260902165014 | 30 | 217 | 8.0 | 14.5 | 0.00 | 0.00 | 0.00 | 36 | 1020.7 |
| 20260902164510 | 29 | 152 | 8.0 | 14.5 | 0.00 | 0.00 | 0.00 | 36 | 1020.6 |
| 20260902164009 | 29 | 207 | 6.4 | 14.5 | 0.00 | 0.00 | 0.00 | 35 | 1020.7 |
| 20260902163508 | 29 | 169 | 8.0 | 14.5 | 0.00 | 0.00 | 0.00 | 36 | 1020.6 |
| 20260902163006 | 28 | 263 | 9.7 | 14.5 | 0.00 | 0.00 | 0.00 | 36 | 1020.7 |
| 20260902162504 | 28 | 209 | 4.8 | 11.3 | 0.00 | 0.00 | 0.00 | 38 | 1020.6 |